User: anonymous   Login
Location: Allison Elementary School
(34.0784°N, 117.7317°W)
Time: 14:31:22
(UTC+00:00)
Language:

SL-8 R/B - Orbit

View from above orbital plane
View from above orbital plane
View from above satellite
View from above satellite

Ground track
Ground track

The orbit data is extracted from the following two-line orbital elements,

1 33066U 08031G   20021.40360411 -.00000148  00000-0  80798-5 0  9995
2 33066  48.4449 354.5825 0007413 169.0500 191.0573 14.69684446622223
Epoch (UTC): 21 January 2020 09:41:11
Eccentricity: 0.0007413
inclination: 48.4449°
perigee height: 657 km
apogee height: 667 km
right ascension of ascending node: 354.5825°
argument of perigee: 169.0500°
revolutions per day: 14.69684446
mean anomaly at epoch: 191.0573°
orbit number at epoch: 62222

The dashed part of the orbit path shows where the satellite is in the earth's shadow,  

DLR